Wind_Speed
26 23 21 18 16 15 13 12 11 10 9 8 7 6 6 6 5 5 5 4 4 4 4 5 5 4 4 4 3 3 3 3 3 4 5 6 7 8 9 10 12 13 14
28 25 23 20 18 17 15 13 12 11 10 9 8 8 7 7 6 6 6 5 5 5 5 5 5 5 5 4 4 3 3 3 4 4 5 6 7 8 10 11 12 13 14
30 27 25 22 20 18 17 15 14 12 11 10 10 9 9 8 7 7 7 6 6 6 6 6 6 6 5 5 5 4 4 4 4 5 6 6 7 8 10 11 12 13 15
32 29 27 25 22 20 18 17 15 14 13 12 11 10 10 9 8 8 7 7 7 7 7 7 7 7 6 6 5 5 5 4 4 5 6 7 8 9 10 11 13 14 15
34 31 29 27 24 22 21 19 17 15 14 13 13 11 11 10 9 8 8 8 8 8 8 8 8 8 7 7 6 6 5 5 5 6 7 8 8 9 10 11 13 14 16
36 34 31 29 26 25 23 21 19 17 16 15 14 13 12 11 10 9 9 9 9 9 9 9 9 9 8 8 7 7 7 6 6 7 7 8 9 10 11 12 13 15 16
38 36 33 31 28 26 25 23 21 19 18 16 16 14 14 13 12 11 10 10 10 10 10 10 10 9 9 8 8 8 8 7 7 8 8 9 10 10 12 13 14 15 17
40 38 35 33 30 28 27 25 23 21 19 18 17 16 15 14 13 13 12 11 11 11 11 11 11 10 10 9 9 9 8 9 9 9 9 10 11 11 12 13 15 16 18
43 40 37 35 32 30 28 26 25 23 21 20 18 17 16 16 15 14 13 13 12 12 12 12 12 11 11 10 10 10 10 10 10 10 11 11 12 13 14 15 16 17 19
44 42 39 37 34 32 30 28 26 24 23 21 20 19 18 17 17 16 15 14 14 14 13 13 13 12 12 12 11 11 11 11 11 12 12 13 13 14 15 16 17 19 20
46 44 42 39 36 33 31 28 27 25 23 22 21 20 18 18 18 17 16 16 15 15 14 14 14 14 13 13 13 13 13 13 13 13 14 14 15 16 17 18 19 20 22
46 45 43 40 37 34 32 29 27 25 24 22 21 20 19 19 18 18 17 17 17 16 16 15 15 15 15 14 14 14 14 14 15 15 16 16 17 18 18 20 21 22 24
48 47 44 42 39 36 33 30 28 26 25 23 22 21 20 20 20 19 19 18 18 18 17 17 17 16 16 16 16 16 16 16 17 17 18 18 19 20 20 22 23 24 26
48 47 45 43 41 38 35 32 29 27 25 24 22 21 21 21 21 20 20 19 19 19 19 18 18 18 18 18 18 18 19 19 19 20 21 21 22 22 23 24 25 27 28
45 45 45 44 42 39 37 34 31 28 26 24 23 22 21 21 21 21 21 21 21 21 21 21 20 20 20 20 21 21 22 22 22 23 24 24 25 25 26 27 28 29 30
43 44 45 43 42 40 38 35 32 29 27 25 23 23 22 22 22 22 22 22 22 22 23 23 23 23 23 23 24 24 25 25 25 26 27 27 27 28 29 29 30 31 33
40 39 41 42 41 39 37 35 33 30 28 27 25 24 23 23 23 23 24 24 24 24 25 25 25 26 26 26 27 27 27 28 28 29 29 30 30 31 31 32 33 34 35
39 37 39 39 39 39 37 36 35 33 30 29 27 26 25 24 24 24 24 25 25 25 25 26 27 28 28 29 30 30 30 31 31 32 32 33 33 34 34 34 35 36 36
39 38 38 38 37 37 37 36 36 34 32 30 28 27 27 26 25 25 26 26 25 26 27 28 29 30 30 31 32 32 33 33 34 35 35 36 36 36 36 37 38 38 39
38 40 39 38 37 37 36 36 35 34 33 31 30 29 28 28 27 27 27 27 27 28 28 29 31 32 33 34 34 34 35 36 37 37 38 39 39 39 39 40 41 41 41
36 38 39 37 35 35 36 35 35 34 34 33 31 30 28 28 29 29 30 30 30 30 31 32 33 34 35 36 36 36 37 38 39 40 40 41 41 42 42 42 42 42 43
36 35 34 35 35 35 35 35 33 33 34 34 33 32 31 31 31 31 32 33 33 33 33 34 35 36 37 38 38 39 39 39 40 41 42 43 44 44 44 43 43 44 44
37 36 34 34 35 35 35 34 34 34 34 34 35 34 34 35 34 34 34 34 34 34 34 36 36 38 38 39 40 41 42 41 41 41 42 43 44 44 44 45 45 45 44
39 37 35 35 36 36 36 35 35 35 34 34 34 35 35 35 35 34 34 35 35 35 36 37 38 39 40 41 43 44 44 45 44 42 41 43 44 45 45 46 46 46 46
41 39 38 37 36 36 36 36 35 35 35 35 35 36 36 36 36 36 36 37 37 38 39 40 40 40 41 42 43 44 44 44 45 45 44 44 45 46 46 46 46 47 46
40 40 39 39 39 38 37 36 37 37 36 37 37 36 37 37 37 37 38 39 40 41 41 41 42 42 43 44 44 45 46 46 47 48 48 47 47 47 47 47 47 47 47
Wind_Direction
227 227 226 225 223 224 226 227 223 221 220 220 223 228 234 240 247 256 265 272 281 290 298 305 305 307 315 320 320 329 341 350 358 4 6 6 6 5 4 3 2 0 358
227 227 225 224 223 223 225 226 224 223 224 225 226 230 234 239 246 257 261 269 277 284 291 296 296 300 307 311 309 311 318 328 340 350 355 356 357 358 358 357 356 356 354
226 226 225 224 223 223 225 225 225 225 226 227 228 231 235 239 245 254 261 268 274 280 286 291 292 295 299 300 300 302 307 316 330 339 341 343 347 351 353 352 352 351 350
224 224 224 224 223 223 224 225 224 224 226 228 228 230 234 238 244 251 259 265 271 277 283 288 289 290 292 292 292 296 301 308 318 326 330 333 340 345 347 348 348 348 347
222 223 223 223 223 223 223 224 224 224 226 228 229 230 233 238 243 249 256 263 269 274 279 284 286 288 289 287 286 290 294 299 309 317 323 329 335 339 341 343 344 344 344
221 221 222 222 222 223 224 224 224 224 226 228 229 230 233 238 243 247 253 261 268 272 276 281 284 286 286 284 285 287 289 294 302 311 318 324 329 333 335 337 340 341 341
219 220 221 221 221 222 223 224 224 224 225 227 230 231 234 238 244 248 253 259 265 270 274 280 283 283 282 281 282 284 287 292 298 306 312 317 322 325 328 332 335 336 337
217 218 219 220 221 221 223 224 224 223 224 226 230 233 235 239 245 248 252 257 262 266 271 276 279 279 279 279 279 280 284 290 296 301 307 312 316 320 323 327 329 331 332
215 216 217 218 219 220 221 222 222 223 224 226 230 234 237 240 244 248 251 255 259 262 266 271 274 276 276 276 276 277 281 286 292 297 303 307 311 315 319 322 324 327 329
213 215 215 216 217 219 220 221 222 222 224 226 230 234 237 241 244 247 251 254 257 259 262 266 270 272 273 274 274 276 279 284 288 294 299 303 307 311 315 317 320 323 325
211 212 214 214 215 217 218 219 220 221 223 226 230 233 237 241 244 247 250 252 255 258 259 262 266 269 271 272 273 275 278 282 286 290 295 300 304 308 311 313 316 318 320
210 211 211 211 213 215 215 217 219 220 222 225 229 233 236 240 243 247 249 251 254 256 258 260 263 266 268 270 273 276 278 282 285 289 293 297 300 304 307 310 312 314 316
210 209 208 210 211 212 213 215 216 218 222 226 230 234 237 240 242 246 248 250 253 255 257 259 262 265 268 271 273 276 279 283 286 289 291 294 297 300 304 307 309 311 313
210 208 207 209 209 210 210 212 215 218 221 225 230 234 237 241 244 246 248 250 252 255 257 259 262 265 267 270 273 276 279 282 285 288 291 293 295 298 301 303 305 308 310
211 209 208 208 209 209 210 212 213 216 220 224 229 233 237 241 244 247 249 251 253 256 259 261 264 266 268 271 273 276 278 280 283 286 289 291 294 296 297 300 302 305 307
212 210 210 209 209 209 209 210 213 215 218 222 227 232 237 240 244 247 250 252 254 257 260 262 264 267 269 272 274 276 278 280 282 285 288 290 292 293 295 297 300 302 304
212 209 209 209 210 208 208 210 213 214 218 223 227 232 236 240 244 248 250 253 255 258 260 263 266 268 270 272 274 276 278 280 283 285 287 289 290 292 293 296 298 301 303
218 216 213 212 212 211 212 214 216 218 221 223 227 232 236 240 244 248 252 255 257 259 262 264 267 269 271 272 274 277 279 281 283 284 286 287 289 290 292 294 297 299 301
222 220 220 217 215 214 215 217 219 221 223 225 229 233 238 241 245 250 254 257 260 262 264 266 268 270 271 273 275 277 279 281 283 284 286 286 287 289 290 292 294 296 298
222 222 221 220 219 218 219 221 223 225 226 228 231 234 238 243 248 252 256 259 262 264 266 268 270 271 272 273 275 276 278 280 282 284 285 286 287 288 289 291 293 295 296
220 222 222 223 222 223 224 225 227 228 231 232 236 237 241 247 251 254 257 260 263 265 267 269 271 272 273 274 275 276 278 280 281 283 284 285 286 288 289 291 292 294 295
223 223 224 226 228 229 229 229 230 232 235 236 239 242 245 250 254 256 259 261 264 266 268 271 272 274 275 276 277 277 277 279 282 284 285 286 287 288 288 290 291 292 294
229 230 228 230 232 231 231 233 236 237 239 240 243 246 250 253 256 257 260 262 264 266 269 272 274 276 277 278 278 279 280 280 280 282 284 286 287 288 288 289 290 292 293
233 234 236 236 237 237 239 240 240 240 241 244 247 249 252 255 256 258 261 263 264 268 272 274 276 277 277 278 279 280 281 282 282 281 283 285 286 286 287 288 290 291 291
237 239 239 240 241 241 241 241 242 244 246 249 250 252 254 257 260 263 264 266 268 271 274 275 276 277 277 277 279 280 281 283 284 285 285 286 287 286 287 288 288 289 290
237 239 241 242 245 245 246 246 247 250 252 254 256 258 259 261 263 266 268 269 270 272 274 275 276 277 277 279 280 281 282 284 286 286 286 287 288 287 287 288 288 289 289
Height
5859 5861 5864 5865 5867 5869 5870 5872 5873 5874 5875 5875 5876 5877 5878 5878 5879 5879 5880 5880 5880 5880 5880 5880 5881 5881 5880 5880 5880 5880 5880 5880 5880 5879 5879 5878 5877 5877 5876 5875 5874 5873 5872
5855 5858 5861 5863 5864 5866 5868 5870 5871 5872 5873 5874 5875 5875 5876 5877 5878 5878 5879 5879 5879 5880 5880 5880 5880 5880 5880 5880 5880 5880 5879 5879 5879 5879 5878 5878 5877 5876 5875 5875 5873 5872 5871
5852 5855 5857 5859 5862 5864 5866 5867 5869 5870 5871 5872 5873 5874 5875 5876 5876 5877 5878 5878 5879 5879 5879 5879 5879 5879 5879 5879 5879 5879 5879 5879 5878 5878 5878 5877 5877 5876 5875 5874 5873 5871 5870
5847 5851 5854 5856 5858 5861 5863 5865 5866 5868 5869 5870 5871 5872 5873 5874 5875 5876 5876 5877 5878 5878 5878 5878 5878 5879 5879 5879 5879 5879 5878 5878 5878 5878 5877 5877 5876 5875 5874 5873 5872 5871 5869
5843 5846 5849 5852 5855 5857 5860 5862 5863 5865 5867 5868 5869 5870 5871 5872 5873 5874 5875 5876 5876 5877 5877 5877 5878 5878 5878 5878 5878 5878 5878 5878 5877 5877 5876 5876 5875 5874 5873 5872 5871 5869 5868
5837 5841 5845 5848 5851 5854 5856 5858 5860 5862 5864 5865 5867 5868 5869 5870 5871 5872 5873 5874 5875 5875 5876 5876 5876 5876 5877 5877 5877 5877 5877 5876 5876 5876 5875 5875 5874 5873 5872 5871 5869 5868 5866
5832 5836 5840 5844 5847 5850 5852 5855 5857 5859 5861 5863 5864 5865 5867 5868 5869 5870 5871 5872 5873 5874 5874 5874 5875 5875 5875 5875 5875 5875 5875 5875 5875 5874 5874 5873 5872 5871 5870 5869 5868 5866 5864
5826 5831 5835 5839 5842 5845 5848 5851 5853 5856 5858 5859 5861 5863 5864 5866 5867 5868 5869 5870 5871 5872 5872 5873 5873 5873 5873 5873 5874 5874 5874 5873 5873 5873 5872 5871 5871 5870 5868 5867 5866 5864 5862
5819 5824 5829 5834 5837 5841 5844 5847 5850 5852 5854 5856 5858 5860 5861 5863 5864 5865 5867 5868 5869 5869 5870 5870 5871 5871 5871 5872 5872 5871 5871 5871 5871 5871 5870 5870 5869 5868 5866 5865 5864 5862 5860
5812 5818 5823 5828 5832 5836 5840 5843 5845 5848 5850 5853 5855 5857 5858 5860 5861 5863 5864 5865 5866 5867 5867 5868 5868 5869 5869 5869 5869 5869 5869 5869 5869 5868 5868 5867 5866 5865 5864 5863 5861 5859 5857
5805 5811 5817 5822 5827 5831 5835 5838 5841 5844 5846 5849 5851 5853 5855 5857 5858 5860 5861 5862 5863 5864 5865 5865 5866 5866 5866 5867 5867 5867 5867 5866 5866 5866 5865 5864 5863 5862 5861 5860 5858 5856 5854
5799 5805 5811 5816 5821 5826 5830 5834 5837 5840 5842 5845 5847 5849 5851 5853 5855 5856 5857 5859 5860 5861 5862 5862 5863 5863 5863 5864 5864 5864 5864 5863 5863 5863 5862 5861 5860 5859 5858 5856 5855 5853 5851
5793 5798 5804 5810 5815 5820 5825 5829 5832 5835 5838 5841 5843 5845 5847 5849 5851 5852 5854 5855 5856 5857 5858 5859 5859 5860 5860 5860 5860 5860 5860 5860 5859 5859 5858 5857 5856 5855 5854 5853 5851 5849 5846
5786 5792 5798 5804 5809 5814 5819 5823 5827 5830 5833 5836 5839 5841 5843 5845 5847 5848 5850 5851 5852 5853 5854 5855 5856 5856 5857 5857 5857 5856 5856 5856 5855 5855 5854 5853 5852 5851 5850 5848 5846 5844 5842
5781 5786 5792 5797 5803 5808 5813 5817 5822 5825 5828 5831 5834 5836 5838 5840 5842 5844 5845 5847 5848 5849 5850 5851 5851 5852 5852 5852 5852 5852 5852 5851 5851 5850 5849 5848 5847 5846 5845 5843 5841 5839 5837
5776 5782 5787 5792 5797 5802 5807 5812 5816 5820 5823 5826 5829 5832 5834 5836 5838 5839 5841 5842 5843 5844 5845 5846 5847 5847 5847 5847 5847 5847 5847 5846 5846 5845 5844 5843 5842 5840 5839 5837 5835 5833 5831
5772 5777 5783 5788 5792 5797 5801 5806 5810 5814 5817 5821 5824 5826 5829 5831 5833 5834 5836 5837 5838 5839 5840 5841 5841 5842 5842 5842 5842 5842 5841 5840 5840 5839 5838 5837 5836 5834 5833 5831 5829 5827 5824
5767 5773 5778 5783 5788 5792 5796 5800 5805 5808 5812 5815 5818 5821 5823 5825 5827 5829 5830 5831 5833 5833 5834 5835 5835 5836 5836 5836 5836 5836 5835 5834 5833 5833 5831 5830 5829 5828 5826 5824 5822 5820 5818
5761 5767 5773 5778 5783 5787 5791 5795 5799 5802 5806 5809 5812 5815 5817 5819 5821 5823 5824 5825 5827 5827 5828 5829 5829 5829 5830 5830 5830 5829 5829 5828 5827 5826 5824 5823 5822 5821 5819 5817 5815 5813 5811
5756 5762 5767 5772 5777 5781 5785 5789 5793 5796 5800 5803 5806 5808 5811 5813 5815 5816 5818 5819 5820 5821 5821 5822 5822 5822 5822 5822 5823 5822 5822 5821 5820 5819 5817 5816 5814 5813 5811 5809 5807 5805 5803
5749 5755 5761 5766 5771 5775 5779 5783 5787 5790 5794 5797 5800 5802 5804 5806 5808 5809 5811 5812 5813 5814 5814 5814 5815 5815 5815 5815 5815 5815 5814 5813 5812 5811 5809 5808 5806 5805 5803 5801 5799 5797 5795
5742 5748 5754 5759 5764 5768 5772 5777 5781 5784 5787 5790 5793 5795 5797 5799 5800 5802 5803 5804 5805 5805 5806 5807 5807 5807 5807 5806 5807 5807 5807 5807 5804 5803 5801 5799 5797 5796 5794 5792 5790 5788 5786
5736 5741 5746 5752 5756 5760 5765 5769 5773 5777 5780 5783 5785 5787 5789 5791 5792 5794 5795 5796 5797 5797 5798 5798 5798 5798 5798 5798 5797 5797 5797 5797 5797 5795 5792 5790 5788 5787 5785 5783 5781 5778 5776
5730 5735 5740 5745 5749 5753 5757 5761 5765 5768 5771 5774 5777 5779 5781 5782 5784 5786 5787 5788 5789 5789 5790 5790 5790 5790 5789 5789 5788 5787 5786 5786 5786 5786 5785 5782 5780 5778 5776 5773 5771 5769 5767
5725 5729 5734 5738 5742 5746 5749 5753 5757 5760 5763 5765 5768 5770 5772 5774 5775 5777 5778 5779 5780 5781 5781 5781 5781 5780 5780 5779 5778 5777 5776 5775 5774 5774 5775 5773 5770 5768 5766 5764 5761 5759 5756
5719 5724 5728 5732 5736 5739 5743 5746 5749 5752 5754 5757 5760 5762 5764 5765 5767 5768 5769 5770 5771 5772 5772 5771 5771 5771 5770 5769 5768 5767 5766 5765 5764 5763 5762 5761 5760 5758 5755 5753 5750 5748 5745